Flag for French Polynesia Weather past 2 weeks in Taiohae, Marquesas Islands, French Polynesia

Now
84 °F

Scattered clouds.


Feels Like: 90 °F
Forecast: 78 / 83 °F
Wind: 9 mph from Southeast

Location: Atuona

Current Time: Mar 27, 2015 at 5:02:29 PM

Latest Report: Mar 27, 2015 at 3:30 PM


Visibility: 37 mi

Pressure: 29.85 "Hg

Humidity: 70%

Dew point: 73 °F

Location of TaiohaeLocation

Historic Weather in Taiohae — Graph

°F

Taiohae temperature yesterday

Maximum temperature yesterday: 86 °F (at 10:30 AM)
Minimum temperature yesterday: 72 °F (at 3:30 AM)
Average temperature yesterday: 78 °F

Past Weeks' High & Low Weather Summary

 TemperatureHumidityPressure
High92 °F (Mar 16, 12:30 PM)93% (Mar 23, 11:30 PM)30.00 "Hg (Mar 23, 11:30 PM)
Low72 °F (Mar 26, 3:30 AM)51% (Mar 16, 3:30 PM)29.77 "Hg (Mar 15, 3:30 PM)
Average80 °F76%29.89 "Hg
* Reported Mar 12 3:30 PM — Mar 27 3:30 PM, Taiohae, Weather by CustomWeather, © 2015

Note: Actual official high and low records may vary slightly from our data, if they occured in-between our weather recording intervals... More about our weather records

Advertising

Taiohae weather history for previous 24 hours

 ConditionsComfort  
Time TempWeatherWind HumidityBarometerVisibility
3:30 PM
Fri, Mar 27
84 °FScattered clouds.9 mph70%29.85 "Hg37 mi
2:30 PM85 °FPassing clouds.14 mph69%29.85 "Hg31 mi
1:30 PM83 °FPassing clouds.14 mph68%29.86 "Hg31 mi
12:30 PM84 °FPassing clouds.14 mph67%29.88 "Hg31 mi
11:30 AM89 °FPassing clouds.14 mph58%29.90 "Hg37 mi
10:30 AM91 °FPassing clouds.12 mph58%29.93 "Hg37 mi
9:30 AM90 °FPassing clouds.9 mph60%29.95 "Hg37 mi
8:30 AM85 °FPassing clouds.3 mph67%29.96 "Hg37 mi
7:30 AM81 °FPassing clouds.1 mph75%29.94 "Hg37 mi
6:30 AM74 °FPassing clouds.1 mph86%29.93 "Hg37 mi
5:30 AM74 °FScattered clouds.2 mph86%29.91 "Hg43 mi
4:30 AM74 °FMild.2 mph85%29.89 "HgN/A
3:30 AM74 °FMild.3 mph83%29.88 "HgN/A
2:30 AM75 °FMild.1 mph82%29.87 "HgN/A
1:30 AM75 °FMild.5 mph84%29.88 "HgN/A
12:30 AM76 °FMild.No wind84%29.89 "HgN/A
11:30 PM
Thu, Mar 26
76 °FMild.3 mph83%29.91 "HgN/A
10:30 PM75 °FMild.1 mph85%29.92 "HgN/A
9:30 PM76 °FMild.2 mph82%29.92 "HgN/A
8:30 PM76 °FMild.2 mph82%29.90 "HgN/A
7:30 PM77 °FWarm.1 mph81%29.89 "HgN/A
6:30 PM78 °FWarm.2 mph77%29.88 "HgN/A
Weather by CustomWeather, © 2015

See weather overviewHow to use our weather pages